OBJECT M, 61905

Orbit data source: Space-Track

You're viewing an Uncataloged Satellite

Recently launched and/or uncataloged satellites may have evolving metadata. Metadata may include but not limited to: Owner, Maufacturer, Bus, Motor, and Mission.

OBJECT M, 61905 is a Chinese satellite in SSO that was launched on Mon, 11 Nov 2024 UTC via a LIJIAN-1 launch vehicle from the Jiuquan Satellite Launch Center, China (JSC). Unknown objects in Earth's orbit typically refer to objects detected orbiting the Earth but have not yet been identified or cataloged. These objects could be anything from previously untracked satellites, spent rocket stages, debris from satellite collisions, or even natural meteoroids temporarily captured by Earth's gravity.

Loading next visibility...
Identifier
61905, 2024-205M
Orbit
SSO
Country
Flag of CNCN / PRC
Related business
None
Manufacturer
Unknown
Mission
Operational Commercial Imaging
Bus & Motor
Unknown
Mass
Unknown
Launch date (UTC)
2024-11-11 (11 months ago)
Launch vehicle
LIJIAN-1
Launch site
Jiuquan Satellite Launch Center, China (JSC)
Object type
Unknown
Shape & HBR
Box, 0.8 m
Radar Cross Section
2.000 m², Medium (>0.1 m² and < 1m²)

Expand to show TLE details & history
Last TLE update: 14 hours ago

TLE from 14 hours ago
0 OBJECT M
1 61905U 24205M   25287.95697890  .00007057  00000-0  37687-3 0  9994
2 61905  97.4411 359.9185 0011651 200.5869 159.4896 15.15367582 51127
Epoch: 2025-10-14T22:58Z
TLE epoch observation values (Epoch: 2025-10-14T22:58:02.976Z)
Latitude
-0.00001°
Longitude
-8.33186°
Altitude
530.476 km
Speed
7.593 km/s
True Right ascension
23h 59m 40s
True Declination
0° 00' 00"
Sunlit
Object was in full shadow at epoch
Visualization orbit readout
Latitude
Unknown
Longitude
Unknown
Altitude
Unknown
Speed
Unknown
Apparent Right ascension
Unknown
Apparent Declination
Unknown
Sunlit
N/A
Visualization observer readout
Local Sidereal Time
07:23:03
Azimuth
Unknown
Elevation
Unknown
Doppler factor
Unknown
Orbital elements
Apogee altitude
524.87 km
Perigee altitude
508.803 km
Semi-major axis
6,894.973 km
Eccentricity
0.00117
Inclination
97.4411°
RAAN
359.9185°
Arg. of periapsis
200.5869°
True anomaly
159.53632°
Mean anomaly
159.4896°
Eccentric anomaly
159.51296°
Mean motion
3.79092 °/min
Orbital period
94.96 mins
BSTAR
0.00037687
Loading maneuver chart data...
Computing Atmospheric mass density...
Loading historical data...
Loading historical data...
Loading historical data...
Loading historical data...
Loading historical data...
Loading historical data...
Loading historical data...

Documentation

Showing up to 5 results
|